Back to catalog

STARLINK-37048

AliveCommunicationsSSO
NORAD 68155·PAYLOAD·🇺🇸 United States

Launched Mar 13, 2026 from Vandenberg Space Force Base

Loading…

Next Passes (next 24 hours)

TLE

FreshSource: CelesTrak SupGP

Epoch: Sep 14, 2026, 21:10 UTC

1 68155C 26049P   26257.88243056  .00013510  00000+0  41942-3 0  2573
2 68155  97.2837 277.8519 0001198 110.1205 319.5077 15.33429726    16

Track STARLINK-37048 in real time with AllMySat

Download on the App Store